Location: Ferques
(50.8300°N, 1.7599°E)
Time: 17:07:19
(UTC+00:00)

Cosmos 1821 Rocket - Pass Details

Date: 19 May 2025
Orbit: 943 x 1004 km, 82.9° (Epoch: 12 June)

Event Time Altitude Azimuth Distance (km) Brightness Sun altitude
Rises 22:12:22 0° 347° (NNW) 3,643 8.7 -16.0°
Reaches altitude 10° 22:14:54 10° 345° (NNW) 2,687 7.6 -16.2°
Maximum altitude 22:20:54 61° 267° (W) 1,067 4.3 -16.6°
Enters shadow 22:25:07 20° 192° (SSW) 2,029 5.2 -16.8°
